TimePST,TemperatureF,Dew PointF,Humidity,Sea Level PressureIn,VisibilityMPH,Wind Direction,Wind SpeedMPH,Gust SpeedMPH,PrecipitationIn,Events,Conditions,WindDirDegrees,DateUTC
12:15 AM,46.4,42.8,87,30.15,10.0,SSW,5.8,-,N/A,,Overcast,200,2012-11-24 08:15:00
12:35 AM,46.4,42.8,87,30.16,10.0,SSW,4.6,-,N/A,,Overcast,200,2012-11-24 08:35:00
12:55 AM,46.4,42.8,87,30.18,10.0,SSW,5.8,-,N/A,,Overcast,200,2012-11-24 08:55:00
1:15 AM,46.4,42.8,87,30.18,2.5,Calm,Calm,-,N/A,,Overcast,0,2012-11-24 09:15:00
1:55 AM,46.4,42.8,87,30.19,4.0,Calm,Calm,-,N/A,,Overcast,0,2012-11-24 09:55:00
2:15 AM,44.6,42.8,93,30.19,10.0,Calm,Calm,-,N/A,,Overcast,0,2012-11-24 10:15:00
2:35 AM,44.6,42.8,93,30.20,2.0,Calm,Calm,-,N/A,,Overcast,0,2012-11-24 10:35:00
2:55 AM,44.6,41.0,87,30.20,10.0,Calm,Calm,-,N/A,,Overcast,0,2012-11-24 10:55:00
3:15 AM,42.8,39.2,87,30.22,10.0,WSW,3.5,-,N/A,,Scattered Clouds,240,2012-11-24 11:15:00
3:35 AM,41.0,37.4,87,30.22,10.0,South,4.6,-,N/A,,Clear,180,2012-11-24 11:35:00
3:55 AM,41.0,37.4,87,30.21,10.0,Calm,Calm,-,N/A,,Clear,0,2012-11-24 11:55:00
4:15 AM,39.2,35.6,87,30.21,10.0,Calm,Calm,-,N/A,,Scattered Clouds,0,2012-11-24 12:15:00
4:35 AM,39.2,35.6,87,30.22,10.0,Calm,Calm,-,N/A,,Overcast,0,2012-11-24 12:35:00
4:55 AM,41.0,37.4,87,30.22,10.0,Calm,Calm,-,N/A,,Overcast,0,2012-11-24 12:55:00
5:15 AM,41.0,37.4,87,30.23,9.0,Calm,Calm,-,N/A,,Overcast,0,2012-11-24 13:15:00
5:35 AM,39.2,37.4,93,30.23,0.8,Calm,Calm,-,N/A,,Overcast,0,2012-11-24 13:35:00
5:55 AM,39.2,35.6,87,30.23,0.5,Calm,Calm,-,N/A,,Overcast,0,2012-11-24 13:55:00
6:15 AM,39.2,37.4,93,30.24,0.2,Calm,Calm,-,N/A,,Overcast,0,2012-11-24 14:15:00
6:35 AM,41.0,37.4,87,30.24,0.2,SW,3.5,-,N/A,,Overcast,220,2012-11-24 14:35:00
6:55 AM,41.0,37.4,87,30.24,0.5,Calm,Calm,-,N/A,,Overcast,0,2012-11-24 14:55:00
7:15 AM,41.0,37.4,87,30.25,0.2,Calm,Calm,-,N/A,,Overcast,0,2012-11-24 15:15:00
7:35 AM,41.0,37.4,87,30.25,0.2,Calm,Calm,-,N/A,,Overcast,0,2012-11-24 15:35:00
7:55 AM,41.0,37.4,87,30.25,0.2,Calm,Calm,-,N/A,,Overcast,0,2012-11-24 15:55:00
8:15 AM,39.2,37.4,93,30.26,0.2,Calm,Calm,-,N/A,,Overcast,0,2012-11-24 16:15:00
8:35 AM,39.2,35.6,87,30.27,0.2,Calm,Calm,-,N/A,,Overcast,0,2012-11-24 16:35:00
8:55 AM,39.2,37.4,93,30.26,0.2,Calm,Calm,-,N/A,,Overcast,0,2012-11-24 16:55:00
9:15 AM,41.0,37.4,87,30.26,1.2,Calm,Calm,-,N/A,,Mostly Cloudy,0,2012-11-24 17:15:00
9:35 AM,42.8,39.2,87,30.27,9.0,Calm,Calm,-,N/A,,Clear,0,2012-11-24 17:35:00
9:55 AM,46.4,42.8,87,30.27,10.0,Calm,Calm,-,N/A,,Clear,0,2012-11-24 17:55:00
10:15 AM,44.6,39.2,81,30.28,10.0,NNE,3.5,-,N/A,,Clear,30,2012-11-24 18:15:00
10:35 AM,44.6,39.2,81,30.27,10.0,Calm,Calm,-,N/A,,Partly Cloudy,0,2012-11-24 18:35:00
10:55 AM,44.6,39.2,81,30.28,10.0,NE,5.8,-,N/A,,Mostly Cloudy,40,2012-11-24 18:55:00
11:15 AM,44.6,39.2,81,30.28,10.0,East,4.6,-,N/A,,Mostly Cloudy,80,2012-11-24 19:15:00
11:35 AM,44.6,39.2,81,30.28,10.0,East,4.6,-,N/A,,Mostly Cloudy,100,2012-11-24 19:35:00
11:55 AM,44.6,39.2,81,30.26,10.0,ESE,3.5,-,N/A,,Overcast,110,2012-11-24 19:55:00
12:15 PM,44.6,39.2,81,30.27,10.0,East,3.5,-,N/A,,Scattered Clouds,90,2012-11-24 20:15:00
12:35 PM,44.6,39.2,81,30.27,10.0,East,3.5,-,N/A,,Mostly Cloudy,100,2012-11-24 20:35:00
12:55 PM,44.6,37.4,76,30.27,10.0,Calm,Calm,-,N/A,,Mostly Cloudy,0,2012-11-24 20:55:00
1:15 PM,44.6,39.2,81,30.27,10.0,Calm,Calm,-,N/A,,Scattered Clouds,0,2012-11-24 21:15:00
1:35 PM,44.6,39.2,81,30.26,10.0,Calm,Calm,-,N/A,,Partly Cloudy,0,2012-11-24 21:35:00
1:55 PM,44.6,39.2,81,30.25,10.0,Calm,Calm,-,N/A,,Partly Cloudy,0,2012-11-24 21:55:00
2:15 PM,44.6,39.2,81,30.26,10.0,Calm,Calm,-,N/A,,Scattered Clouds,0,2012-11-24 22:15:00
2:35 PM,46.4,39.2,76,30.25,10.0,WSW,3.5,-,N/A,,Mostly Cloudy,250,2012-11-24 22:35:00
2:55 PM,46.4,39.2,76,30.26,10.0,West,3.5,-,N/A,,Overcast,270,2012-11-24 22:55:00
3:15 PM,46.4,41.0,81,30.26,10.0,Calm,Calm,-,N/A,,Mostly Cloudy,0,2012-11-24 23:15:00
3:35 PM,46.4,39.2,76,30.26,10.0,Calm,Calm,-,N/A,,Mostly Cloudy,0,2012-11-24 23:35:00
3:55 PM,44.6,39.2,81,30.25,10.0,Calm,Calm,-,N/A,,Mostly Cloudy,0,2012-11-24 23:55:00
4:15 PM,44.6,39.2,81,30.26,10.0,Calm,Calm,-,N/A,,Mostly Cloudy,0,2012-11-25 00:15:00
4:35 PM,42.8,37.4,81,30.25,10.0,Calm,Calm,-,N/A,,Mostly Cloudy,0,2012-11-25 00:35:00
4:55 PM,41.0,37.4,87,30.25,10.0,North,3.5,-,N/A,,Overcast,10,2012-11-25 00:55:00
5:15 PM,41.0,37.4,87,30.25,10.0,NNE,6.9,-,N/A,,Scattered Clouds,20,2012-11-25 01:15:00
5:35 PM,41.0,37.4,87,30.26,10.0,NNE,5.8,-,N/A,,Scattered Clouds,20,2012-11-25 01:35:00
5:55 PM,39.2,35.6,87,30.26,10.0,NE,3.5,-,N/A,,Partly Cloudy,40,2012-11-25 01:55:00
6:15 PM,37.4,33.8,87,30.25,10.0,Calm,Calm,-,N/A,,Mostly Cloudy,0,2012-11-25 02:15:00
6:35 PM,37.4,33.8,87,30.26,2.5,Calm,Calm,-,N/A,,Overcast,0,2012-11-25 02:35:00
6:55 PM,37.4,35.6,93,30.25,10.0,Calm,Calm,-,N/A,,Overcast,0,2012-11-25 02:55:00
7:15 PM,39.2,35.6,87,30.26,10.0,Calm,Calm,-,N/A,,Overcast,0,2012-11-25 03:15:00
7:35 PM,39.2,35.6,87,30.25,10.0,Calm,Calm,-,N/A,,Overcast,0,2012-11-25 03:35:00
7:55 PM,39.2,35.6,87,30.25,10.0,Calm,Calm,-,N/A,,Overcast,0,2012-11-25 03:55:00
8:15 PM,39.2,35.6,87,30.26,10.0,Calm,Calm,-,N/A,,Overcast,0,2012-11-25 04:15:00
8:35 PM,39.2,35.6,87,30.26,10.0,Calm,Calm,-,N/A,,Overcast,0,2012-11-25 04:35:00
8:55 PM,39.2,35.6,87,30.26,10.0,Calm,Calm,-,N/A,,Overcast,0,2012-11-25 04:55:00
9:15 PM,39.2,35.6,87,30.27,10.0,SSW,3.5,-,N/A,,Overcast,200,2012-11-25 05:15:00
9:35 PM,39.2,35.6,87,30.27,10.0,Calm,Calm,-,N/A,,Overcast,0,2012-11-25 05:35:00
9:55 PM,39.2,35.6,87,30.28,10.0,Calm,Calm,-,N/A,,Overcast,0,2012-11-25 05:55:00
10:15 PM,39.2,35.6,87,30.27,10.0,Calm,Calm,-,N/A,,Mostly Cloudy,0,2012-11-25 06:15:00
10:35 PM,37.4,33.8,87,30.27,1.5,Calm,Calm,-,N/A,,Scattered Clouds,0,2012-11-25 06:35:00
10:55 PM,35.6,32.0,87,30.28,3.0,Calm,Calm,-,N/A,,Partly Cloudy,0,2012-11-25 06:55:00
11:15 PM,35.6,32.0,87,30.28,8.0,Calm,Calm,-,N/A,,Mostly Cloudy,0,2012-11-25 07:15:00
11:35 PM,35.6,32.0,87,30.29,1.8,Calm,Calm,-,N/A,,Overcast,0,2012-11-25 07:35:00
11:55 PM,35.6,32.0,87,30.28,1.0,Calm,Calm,-,N/A,,Overcast,0,2012-11-25 07:55:00